Location: Boursonne
(49.2024°N, 3.0468°E)
Time: 00:05:43
(UTC+00:00)

SAR-Lupe-1 - Pass Details

Date: 03 March 2021
Orbit: 482 x 483 km, 98.2° (Epoch: 30 March)

Event Time Altitude Azimuth Distance (km) Brightness Sun altitude
Rises 18:24:07 0° 19° (NNE) 2,560 7.5 -8.9°
Reaches altitude 10° 18:26:15 10° 26° (NNE) 1,675 6.5 -9.3°
Maximum altitude 18:29:43 44° 100° (E) 680 4.3 -9.8°
Drops below altitude 10° 18:33:08 10° 174° (S) 1,660 6.7 -10.4°
Sets 18:35:15 0° 181° (S) 2,535 7.7 -10.7°
